DECAYED

STARLINK-2434, 47842 (Decayed)

Orbit data source: Space-Track

STARLINK-2434, 47842 was a payload satellite owned by SpaceX/Seattle (US) in LEO that was launched on Thu, 11 Mar 2021 UTC via an FALCON 9 launch vehicle from the Air Force Eastern Test Range (AFETR). Payload-class satellites include a variety of spacecraft equipped with specific instruments for various scientific and technological missions. These include communications satellites like Starlink; space stations such as the ISS; scientific satellites like the Hubble; Earth observation satellites from companies like Planet Labs, Umbra, and HawkEye 360; GPS; miniature CubeSats for education and research; and military/defense satellites.

Not visible in the next 10 days
Identifier
47842, 2021-018BH
Orbit
Decayed
Country
Flag of USUS
Related business
Manufacturer
SpaceX/Seattle
Mission
Decayed Commercial Communications
Bus & Motor
STARLINK, Unknown motor
Mass
260 kg wet, ~248 kg dry
Launch date (UTC)
2021-03-11 (5 years ago)
Launch vehicle
FALCON 9
Launch site
Air Force Eastern Test Range (AFETR)
Object type
Payload
Rocket body
Debris
Shape & HBR
Box + 1 Pan, 10.1 m
Radar Cross Section
13.562 m², Large (>1 m²)

Expand to show TLE details & history
Last TLE update: 1 year ago

TLE from 1 year ago
0 STARLINK-2434
1 47842U 21018BH  25012.91384565  .18637891  12516-4  34326-3 0  9991
2 47842  53.0342 328.3159 0003888 220.3596 252.6289 16.47392888213005
Epoch: 2025-01-12T21:55Z
TLE epoch observation values (Epoch: 2025-01-12T21:55:56.264Z)
Latitude
47.52505°
Longitude
11.87174°
Altitude
152.167 km
Speed
7.821 km/s
True Right ascension
06h 13m 59s
True Declination
47° 20' 16"
Sunlit
Object was in full shadow at epoch
Visualization orbit readout
Latitude
Unknown
Longitude
Unknown
Altitude
Unknown
Speed
Unknown
Apparent Right ascension
Unknown
Apparent Declination
Unknown
Sunlit
N/A
Visualization observer readout
Local Sidereal Time
21:49:13
Azimuth
Unknown
Elevation
Unknown
Doppler factor
Unknown
Orbital elements
Apogee altitude
149.037 km
Perigee altitude
143.964 km
Semi-major axis
6,524.637 km
Eccentricity
0.00039
Inclination
53.0342°
RAAN
328.3159°
Arg. of periapsis
220.3596°
True anomaly
252.58638°
Mean anomaly
252.6289°
Eccentric anomaly
252.60764°
Mean motion
4.11821 °/min
Orbital period
87.42 mins
BSTAR
0.00034326
Loading maneuver chart data...
Computing Atmospheric mass density...

Documentation

Showing up to 5 results
|